Location: Unspecified
(0.0000°N, 0.0000°E)
Time: 19:36:52
(UTC+00:00)

Vanguard 1 Rocket - Pass Details

Date: 20 April 2026
Orbit: 655 x 4212 km, 34.3° (Epoch: 17 May)

Event Time Altitude Azimuth Distance (km) Brightness Sun altitude
Rises 03:34:45 0° 316° (NW) 7,241 11.7 -35.2°
Reaches altitude 10° 03:40:59 10° 323° (NW) 5,621 11.2 -33.7°
Maximum altitude 03:54:07 37° 24° (NNE) 2,528 9.8 -30.5°
Drops below altitude 10° 04:01:25 10° 90° (E) 3,146 11.0 -28.8°
Sets 04:03:49 0° 99° (E) 3,815 11.6 -28.2°
